N6WDO Weather Reports


Display with metric or nautical units.
time (UTC)temp
F
wind
direction
speed
MPH
gust
MPH
rain 1hr
in
rain 24hr
in
rain mn
in
humidity
%
barometer
mb
20260506073217 46 185 0.0 0.0 0.00 0.00 0.00 98 1019.9
20260506072714 45 176 0.0 0.0 0.00 0.00 0.00 97 1019.7
20260506072212 46 182 0.0 0.0 0.00 0.00 0.00 97 1019.9
20260506071709 46 190 0.0 0.0 0.00 0.00 0.00 97 1019.7
20260506071207 46 206 0.0 1.0 0.00 0.00 0.00 97 1019.6
20260506070703 46 194 0.0 0.0 0.00 0.00 0.00 97 1019.5
20260506070201 46 195 0.0 0.0 0.00 0.00 0.00 97 1019.5
20260506062137 46 182 0.0 0.0 0.00 0.05 0.05 95 1019.2
20260506061633 46 182 0.0 0.0 0.00 0.05 0.05 95 1019.2
20260506061131 47 183 0.0 0.0 0.00 0.05 0.05 95 1019.1
20260506060629 47 186 0.0 1.0 0.00 0.05 0.05 95 1019.3
20260506060126 47 178 0.0 0.0 0.00 0.05 0.05 95 1019.0
20260506051058 47 212 1.0 1.0 0.00 0.05 0.05 96 1018.6
20260506050556 47 220 1.0 1.0 0.00 0.05 0.05 96 1018.7
20260506045046 48 211 0.0 1.0 0.00 0.05 0.05 95 1018.5
20260506044544 47 148 0.0 0.0 0.00 0.05 0.05 95 1018.6
20260506044041 47 178 0.0 0.0 0.00 0.05 0.05 95 1018.4
20260506043538 48 193 0.0 0.0 0.00 0.05 0.05 94 1018.4
20260506043036 48 192 0.0 0.0 0.00 0.05 0.05 94 1018.4
20260506042535 48 177 0.0 0.0 0.00 0.05 0.05 94 1018.2
20260506042033 48 175 0.0 0.0 0.00 0.05 0.05 95 1018.3
20260506041531 48 176 0.0 0.0 0.00 0.05 0.05 94 1018.0
20260506041027 48 177 0.0 0.0 0.00 0.05 0.05 93 1018.2
20260506040525 48 179 0.0 0.0 0.00 0.05 0.05 93 1018.0
20260506040021 48 179 0.0 0.0 0.00 0.05 0.05 92 1017.8
20260506035518 48 176 0.0 0.0 0.00 0.05 0.05 92 1017.9
20260506035015 49 176 1.0 1.0 0.00 0.05 0.05 91 1017.7
20260506034513 49 166 0.0 0.0 0.00 0.05 0.05 90 1017.6
20260506034009 49 189 0.0 0.0 0.00 0.05 0.05 90 1017.7
20260506033507 49 196 0.0 1.0 0.00 0.05 0.05 90 1017.4
20260506033004 50 193 0.0 0.0 0.00 0.05 0.05 89 1017.7
20260506032501 49 209 1.0 1.0 0.00 0.05 0.05 90 1017.5
20260506031957 49 210 1.0 1.0 0.00 0.05 0.05 91 1017.5
20260506031455 49 177 1.0 1.0 0.00 0.05 0.05 90 1017.2
20260506030952 50 192 0.0 0.0 0.00 0.05 0.05 90 1017.5
20260506030450 50 210 1.0 1.0 0.00 0.05 0.05 89 1017.3
20260506025946 50 197 1.0 1.0 0.00 0.05 0.05 89 1017.3
20260506025443 51 167 0.0 0.0 0.00 0.05 0.05 88 1017.1
20260506024940 51 197 1.0 1.0 0.00 0.05 0.05 88 1017.1
20260506024437 51 215 1.0 1.0 0.00 0.05 0.05 87 1016.9
20260506023932 52 199 0.0 1.0 0.00 0.05 0.05 85 1016.9
20260506023430 53 193 0.0 1.0 0.00 0.05 0.05 85 1016.7
20260506022926 53 177 1.0 1.0 0.00 0.05 0.05 84 1016.9
20260506022424 54 186 0.0 0.0 0.00 0.05 0.05 81 1016.7
20260506021922 54 186 0.0 0.0 0.00 0.05 0.05 82 1016.6
20260506021419 55 177 0.0 0.0 0.00 0.05 0.05 83 1016.9
20260506020916 56 184 0.0 0.0 0.00 0.05 0.05 82 1016.7
20260506020414 56 172 0.0 0.0 0.00 0.05 0.05 76 1016.7
20260506015910 57 172 0.0 0.0 0.00 0.05 0.05 76 1016.7
20260506015408 57 172 0.0 0.0 0.00 0.05 0.05 76 1016.6
20260506014905 57 172 0.0 0.0 0.00 0.05 0.05 75 1016.8
20260506014402 57 172 0.0 0.0 0.00 0.05 0.05 74 1016.6
20260506013858 57 131 0.0 1.0 0.00 0.05 0.05 73 1016.6
20260506013356 57 59 1.0 1.0 0.00 0.05 0.05 73 1016.6
20260506012852 57 336 0.0 0.0 0.00 0.05 0.05 72 1016.6
20260506012349 57 332 1.0 1.0 0.00 0.05 0.05 71 1016.9
20260506011846 58 306 0.0 0.0 0.00 0.05 0.05 73 1016.6
20260506011343 58 345 1.0 1.0 0.00 0.05 0.05 72 1016.7
20260506010840 58 45 1.0 1.0 0.00 0.05 0.05 72 1016.8
20260506010338 58 184 0.0 0.0 0.00 0.05 0.05 75 1016.7
20260506005835 58 202 1.0 1.0 0.00 0.05 0.05 73 1016.8
20260506005332 58 210 1.0 1.0 0.00 0.05 0.05 73 1016.7
20260506004827 58 179 1.0 2.0 0.00 0.05 0.05 73 1016.6
20260506004326 59 175 0.0 0.0 0.00 0.05 0.05 72 1016.7
20260506003821 59 199 0.0 1.0 0.00 0.05 0.05 70 1016.7
20260506003318 59 179 0.0 0.0 0.00 0.05 0.05 71 1016.6
20260506002814 59 104 0.0 0.0 0.00 0.05 0.05 70 1016.6
20260506002311 59 65 1.0 1.0 0.00 0.05 0.05 70 1016.6
20260506001806 59 117 0.0 0.0 0.00 0.05 0.05 69 1016.6
20260506001304 59 50 0.0 1.0 0.00 0.05 0.05 71 1016.6
20260506000801 59 91 0.0 0.0 0.00 0.05 0.05 70 1016.7
20260506000258 59 67 1.0 1.0 0.00 0.05 0.05 73 1016.8
20260505235755 59 145 0.0 0.0 0.00 0.05 0.05 73 1016.7
20260505235253 58 191 0.0 0.0 0.00 0.05 0.05 74 1016.7
20260505234749 58 195 2.0 2.0 0.00 0.05 0.05 75 1016.6
20260505234247 58 170 1.0 2.0 0.00 0.05 0.05 78 1016.8
20260505233743 58 161 1.0 2.0 0.00 0.05 0.05 77 1016.6
20260505233242 58 165 1.0 2.0 0.00 0.05 0.05 76 1016.8
20260505232738 57 169 0.0 1.0 0.00 0.05 0.05 79 1016.6
20260505232236 57 188 1.0 1.0 0.00 0.05 0.05 79 1016.8
20260505231732 58 182 4.0 6.0 0.00 0.05 0.05 78 1016.7
20260505231232 58 206 1.0 1.0 0.00 0.05 0.05 76 1016.5
20260505230729 58 169 1.0 1.0 0.00 0.05 0.05 72 1016.6
20260505230226 59 139 0.0 0.0 0.00 0.05 0.05 70 1016.7
20260505225722 58 218 1.0 1.0 0.00 0.05 0.05 68 1016.7
20260505225219 59 163 0.0 0.0 0.00 0.05 0.05 71 1016.6
20260505224715 59 177 0.0 0.0 0.00 0.05 0.05 66 1016.8
20260505224212 59 346 0.0 0.0 0.00 0.05 0.05 67 1016.6
20260505223710 59 347 0.0 0.0 0.00 0.05 0.05 68 1016.7
20260505223206 58 347 0.0 0.0 0.00 0.05 0.05 66 1016.8
20260505222702 59 347 0.0 0.0 0.00 0.05 0.05 66 1016.7
20260505222158 59 347 0.0 1.0 0.00 0.05 0.05 65 1016.7
20260505221656 59 353 1.0 1.0 0.00 0.05 0.05 65 1016.5
20260505221152 58 327 0.0 0.0 0.00 0.05 0.05 67 1016.5
20260505220649 58 162 0.0 0.0 0.00 0.05 0.05 66 1016.7
20260505220147 58 43 0.0 1.0 0.00 0.05 0.05 66 1016.7
20260505215644 58 47 1.0 1.0 0.00 0.05 0.05 66 1016.9
20260505215142 58 81 0.0 1.0 0.00 0.05 0.05 67 1016.7
20260505214640 58 329 1.0 1.0 0.00 0.05 0.05 68 1016.6
20260505214137 58 64 1.0 1.0 0.00 0.05 0.05 68 1016.8
20260505213635 58 111 0.0 0.0 0.00 0.05 0.05 69 1016.9
20260505213131 58 54 0.0 1.0 0.00 0.05 0.05 71 1016.7
20260505212627 58 42 2.0 2.0 0.00 0.05 0.05 70 1017.1
20260505212125 59 188 0.0 0.0 0.00 0.05 0.05 70 1016.9
20260505211621 59 178 0.0 0.0 0.00 0.05 0.05 68 1016.8
20260505211119 59 292 0.0 1.0 0.00 0.05 0.05 68 1016.8
20260505210615 58 196 0.0 0.0 0.00 0.05 0.05 68 1016.6
20260505210112 58 175 0.0 0.0 0.00 0.05 0.05 72 1016.7
20260505205610 58 338 1.0 1.0 0.00 0.05 0.05 69 1016.5
20260505205107 57 179 0.0 0.0 0.00 0.05 0.05 72 1016.8
20260505204604 57 104 1.0 1.0 0.00 0.05 0.05 76 1016.5
20260505204102 57 119 0.0 0.0 0.00 0.05 0.05 76 1016.7
20260505203558 57 83 0.0 0.0 0.00 0.05 0.05 76 1016.6
20260505203055 57 46 1.0 1.0 0.00 0.05 0.05 76 1016.5
20260505202551 57 64 0.0 1.0 0.00 0.05 0.05 77 1016.5
20260505202047 57 332 2.0 2.0 0.00 0.05 0.05 74 1016.6
20260505201544 57 18 1.0 1.0 0.00 0.05 0.05 72 1016.7
20260505201042 57 202 0.0 1.0 0.00 0.05 0.05 73 1016.6
20260505200539 57 138 0.0 0.0 0.00 0.05 0.05 75 1016.5
20260505200036 57 347 1.0 2.0 0.00 0.05 0.05 75 1016.2
20260505195532 57 348 0.0 0.0 0.00 0.05 0.05 76 1016.6
20260505195030 57 144 0.0 0.0 0.00 0.05 0.05 76 1016.8
20260505194527 57 211 0.0 0.0 0.00 0.05 0.05 76 1016.7
20260505194022 57 229 0.0 1.0 0.00 0.05 0.05 77 1016.8
20260505193520 57 221 0.0 1.0 0.00 0.05 0.05 77 1016.8
20260505193017 57 296 0.0 0.0 0.00 0.05 0.05 77 1016.6
20260505192516 57 296 0.0 0.0 0.00 0.05 0.05 77 1016.6
20260505192013 58 266 0.0 0.0 0.00 0.05 0.05 75 1016.5
20260505191511 58 293 0.0 0.0 0.00 0.05 0.05 77 1016.9
20260505191009 58 280 0.0 0.0 0.00 0.05 0.05 77 1016.6
20260505190503 58 234 1.0 1.0 0.00 0.05 0.05 78 1016.7
20260505185958 58 290 0.0 1.0 0.00 0.05 0.05 77 1016.5
20260505185456 58 205 0.0 0.0 0.00 0.05 0.05 77 1016.3
20260505184952 58 197 0.0 0.0 0.00 0.05 0.05 79 1016.5
20260505184449 57 218 0.0 1.0 0.00 0.05 0.05 78 1016.6
20260505183945 58 209 0.0 1.0 0.00 0.05 0.05 79 1016.5
20260505183443 59 218 0.0 0.0 0.00 0.05 0.05 78 1016.6
20260505182939 59 223 2.0 3.0 0.00 0.05 0.05 76 1016.5
20260505182436 59 262 0.0 0.0 0.00 0.05 0.05 74 1016.5
20260505181932 60 273 0.0 0.0 0.00 0.05 0.05 78 1016.5
20260505181430 60 317 1.0 2.0 0.00 0.05 0.05 74 1016.2
20260505180927 59 327 1.0 1.0 0.00 0.05 0.05 79 1016.1
20260505180423 59 194 0.0 0.0 0.00 0.05 0.05 77 1016.2
20260505175920 58 2 1.0 1.0 0.00 0.05 0.05 80 1016.1
20260505175416 57 339 2.0 2.0 0.00 0.05 0.05 81 1016.2
20260505174912 56 14 2.0 3.0 0.00 0.05 0.05 85 1016.1
20260505174410 55 155 0.0 0.0 0.00 0.05 0.05 86 1016.0
20260505173906 55 174 0.0 0.0 0.00 0.05 0.05 88 1016.0
20260505173402 55 188 2.0 2.0 0.00 0.05 0.05 88 1016.0
20260505172900 55 84 0.0 0.0 0.00 0.05 0.05 89 1015.8
20260505172358 55 8 2.0 3.0 0.00 0.05 0.05 89 1015.9
20260505171857 55 344 1.0 1.0 0.00 0.05 0.05 89 1015.9
20260505171354 54 331 1.0 1.0 0.00 0.05 0.05 88 1015.8
20260505170850 54 193 0.0 1.0 0.00 0.05 0.05 89 1015.9
20260505170348 54 27 2.0 2.0 0.00 0.05 0.05 89 1015.9
20260505165842 54 40 3.0 3.0 0.00 0.05 0.05 90 1015.8
20260505165339 54 196 0.0 0.0 0.00 0.05 0.05 92 1015.7
20260505164835 54 151 0.0 0.0 0.00 0.05 0.05 92 1015.6
20260505164331 54 23 2.0 2.0 0.00 0.05 0.05 93 1015.6
20260505163830 54 319 1.0 1.0 0.00 0.05 0.05 93 1015.7
20260505163328 53 21 1.0 1.0 0.00 0.05 0.05 95 1015.4
20260505162826 52 126 0.0 0.0 0.00 0.05 0.05 97 1015.6
20260505162322 52 51 1.0 2.0 0.00 0.05 0.05 97 1015.7
20260505161819 52 64 1.0 1.0 0.00 0.05 0.05 97 1015.6
20260505161316 51 234 0.0 0.0 0.00 0.05 0.05 98 1015.7
20260505160814 51 79 0.0 0.0 0.00 0.05 0.05 98 1015.5
20260505160312 51 215 0.0 0.0 0.00 0.05 0.05 98 1015.7
20260505153250 51 216 0.0 0.0 0.00 0.05 0.05 99 1015.5
20260505152747 51 216 0.0 0.0 0.00 0.05 0.05 99 1015.5
20260505152243 51 174 0.0 0.0 0.00 0.05 0.05 99 1015.2
20260505151738 51 153 0.0 0.0 0.07 0.05 0.05 99 1015.3
20260505151236 50 222 0.0 0.0 0.07 0.05 0.05 99 1015.5
20260505150732 50 264 0.0 0.0 0.00 0.04 0.04 99 1015.3
20260505150230 50 123 0.0 0.0 0.00 0.04 0.04 99 1015.2
20260505140154 50 159 0.0 0.0 0.00 0.04 0.04 99 1014.8
20260505130118 50 210 0.0 0.0 0.00 0.03 0.03 99 1014.7
20260505124607 50 210 0.0 0.0 0.07 0.03 0.03 99 1014.5
20260505124104 50 224 0.0 0.0 0.07 0.03 0.03 98 1014.4
20260505123600 50 224 0.0 0.0 0.07 0.03 0.03 98 1014.5
20260505123056 50 224 0.0 0.0 0.00 0.02 0.02 98 1014.3
20260505122553 50 224 0.0 0.0 0.00 0.02 0.02 98 1014.4
20260505122051 50 224 0.0 0.0 0.00 0.02 0.02 98 1014.3
20260505121547 50 224 0.0 0.0 0.00 0.02 0.02 98 1014.5
20260505121044 50 224 0.0 0.0 0.00 0.02 0.02 98 1014.7
20260505120540 50 224 0.0 0.0 0.00 0.02 0.02 98 1014.5
20260505120036 50 224 0.0 0.0 0.00 0.02 0.02 98 1014.3
20260505115530 50 224 0.0 0.0 0.00 0.02 0.02 98 1014.4
20260505115029 50 224 0.0 0.0 0.00 0.02 0.02 98 1014.2
20260505114525 50 224 0.0 0.0 0.00 0.02 0.02 98 1014.3
20260505114021 50 224 0.0 0.0 0.05 0.02 0.02 98 1014.4
20260505113518 50 224 0.0 0.0 0.05 0.02 0.02 98 1014.3
20260505113014 50 224 0.0 0.0 0.00 0.01 0.01 98 1014.0
20260505112510 50 224 0.0 0.0 0.00 0.01 0.01 98 1014.1
20260505112003 50 224 0.0 0.0 0.00 0.01 0.01 98 1014.5
20260505111456 50 224 0.0 0.0 0.00 0.01 0.01 98 1014.4
20260505110953 50 224 0.0 0.0 0.00 0.01 0.01 98 1014.3
20260505110450 50 224 0.0 0.0 0.07 0.01 0.01 98 1014.5
20260505101920 50 152 0.0 0.0 0.00 0.00 0.00 97 1014.7
20260505101415 50 152 0.0 0.0 0.00 0.00 0.00 97 1014.4
20260505100911 50 152 0.0 0.0 0.00 0.00 0.00 97 1014.4
20260505100408 50 152 0.0 0.0 0.00 0.00 0.00 97 1014.4
20260505095904 50 152 0.0 0.0 0.00 0.00 0.00 97 1014.5
20260505095401 50 152 0.0 0.0 0.00 0.00 0.00 97 1014.4
20260505094857 50 152 0.0 0.0 0.00 0.00 0.00 97 1014.4
20260505094354 50 151 0.0 0.0 0.00 0.00 0.00 97 1014.5
20260505093850 50 151 0.0 0.0 0.00 0.00 0.00 97 1014.4
20260505093347 50 151 0.0 0.0 0.00 0.00 0.00 97 1014.4
20260505092845 50 151 0.0 0.0 0.00 0.00 0.00 97 1014.5
20260505092343 50 151 0.0 0.0 0.00 0.00 0.00 97 1014.7
20260505091839 50 151 0.0 0.0 0.00 0.00 0.00 97 1014.8
20260505091338 50 151 0.0 0.0 0.00 0.00 0.00 97 1014.7
20260505090835 50 151 0.0 0.0 0.00 0.00 0.00 97 1015.0
20260505090333 50 151 0.0 0.0 0.00 0.00 0.00 97 1014.7
20260505085830 50 151 0.0 0.0 0.00 0.00 0.00 97 1014.5
20260505085328 50 151 0.0 0.0 0.00 0.00 0.00 97 1014.9
20260505084826 50 144 0.0 0.0 0.00 0.00 0.00 97 1014.5
20260505084324 50 184 0.0 0.0 0.00 0.00 0.00 97 1014.8
20260505083820 50 184 0.0 0.0 0.00 0.00 0.00 97 1014.8
20260505083318 50 184 0.0 0.0 0.00 0.00 0.00 97 1014.8
20260505082815 50 185 0.0 0.0 0.00 0.00 0.00 97 1014.9
20260505082311 50 138 0.0 0.0 0.00 0.00 0.00 97 1015.0
20260505081808 50 180 0.0 0.0 0.00 0.00 0.00 97 1014.8
20260505081305 50 180 0.0 0.0 0.00 0.00 0.00 97 1014.9
20260505080801 50 200 0.0 0.0 0.00 0.00 0.00 97 1014.7
20260505080257 50 206 0.0 0.0 0.00 0.00 0.00 97 1015.0